M I D A S
Marine Information and Data Acquisition System
Tripno 1728 of the Zeeleeuw from 2009-07-01 08:36:45 to 2009-07-01 14:22:57
Back to CruiseResearch ActivitiesStationsMapUnderway DataData graphs

EquipmentUnitsComment
TimeDGPSUTC
LatitudeDGPSDM.mWGS84
LongitudeDGPSDM.mWGS84
HeadingGyrodeg 
SOGDGPSknotsSpeed over ground
COGDGPSdegCourse over ground
DepthEcho soundermeters200 kHz
Missing or incorrect values are displayed as -999
Navigation data collected by the RV Zeeleeuw from 2009-07-01 08:30:22 to 2009-07-01 14:34:10
                                                                                    Next 1000 lines
Time Latitude Longitude Heading SOG COG Depth
2009-07-01 08:30:31 51°13.662 2°55.956 113.3 0.8 287 8
2009-07-01 08:30:35 51°13.662 2°55.954 112.9 1.1 292 8
2009-07-01 08:30:41 51°13.663 2°55.95 112.8 1.3 290 8.1
2009-07-01 08:30:46 51°13.664 2°55.947 112.9 1.5 293 8.1
2009-07-01 08:30:51 51°13.665 2°55.944 113.2 1.8 292 6
2009-07-01 08:30:57 51°13.666 2°55.938 113.6 2.2 294 -999
2009-07-01 08:31:02 51°13.668 2°55.933 114 2.6 293 -999
2009-07-01 08:31:08 51°13.67 2°55.926 114.2 2.9 294 -999
2009-07-01 08:31:14 51°13.672 2°55.918 114.3 3.3 293 -999
2009-07-01 08:31:19 51°13.674 2°55.911 114.3 3.5 294 -999
2009-07-01 08:31:25 51°13.676 2°55.902 114.2 3.8 293 -999
2009-07-01 08:31:30 51°13.678 2°55.894 113.6 3.9 292 -999
2009-07-01 08:31:35 51°13.68 2°55.885 112.9 4.1 291 -999
2009-07-01 08:31:40 51°13.682 2°55.877 112.1 4.3 290 -999
2009-07-01 08:31:45 51°13.684 2°55.867 111.2 4.3 289 -999
2009-07-01 08:31:50 51°13.686 2°55.858 110.4 4.3 288 -999
2009-07-01 08:31:55 51°13.688 2°55.849 109.3 4.3 288 -999
2009-07-01 08:32:00 51°13.69 2°55.841 108.2 4.2 288 -999
2009-07-01 08:32:05 51°13.692 2°55.832 107.3 4.1 286 -999
2009-07-01 08:32:10 51°13.693 2°55.823 106.5 4.1 286 -999
2009-07-01 08:32:15 51°13.695 2°55.815 105.6 4 285 -999
2009-07-01 08:32:20 51°13.696 2°55.806 104.8 3.8 283 -999
2009-07-01 08:32:25 51°13.697 2°55.799 104 3.7 283 -999
2009-07-01 08:32:30 51°13.698 2°55.79 103.1 3.7 283 -999
2009-07-01 08:32:35 51°13.699 2°55.782 102.4 3.7 282 -999
2009-07-01 08:32:40 51°13.7 2°55.775 101.7 3.5 282 -999
2009-07-01 08:32:45 51°13.701 2°55.768 101 3.2 283 -999
2009-07-01 08:32:50 51°13.702 2°55.763 100.9 2.5 282 -999
2009-07-01 08:32:55 51°13.702 2°55.76 100 1.8 285 -999
2009-07-01 08:33:00 51°13.703 2°55.758 97.5 0.7 291 -999
2009-07-01 08:33:05 51°13.703 2°55.758 92.5 0.4 347 -999
2009-07-01 08:33:10 51°13.703 2°55.759 85.6 0.4 46 -999
2009-07-01 08:33:15 51°13.704 2°55.76 80.5 0.6 37 -999
2009-07-01 08:33:20 51°13.704 2°55.761 74.7 0.6 54 -999
2009-07-01 08:33:25 51°13.705 2°55.761 69.7 0.5 31 -999
2009-07-01 08:33:30 51°13.705 2°55.761 66.3 0.2 42 5
2009-07-01 08:33:35 51°13.705 2°55.76 64.9 0.5 266 4.8
2009-07-01 08:33:39 51°13.705 2°55.759 62.7 0.7 251 4.7
2009-07-01 08:33:44 51°13.704 2°55.758 60 0.8 247 14.6
2009-07-01 08:33:49 51°13.704 2°55.755 57.7 1.1 243 14.6
2009-07-01 08:33:54 51°13.703 2°55.753 55.7 1.2 243 15.1
2009-07-01 08:33:59 51°13.702 2°55.751 53.8 1.2 242 14.9
2009-07-01 08:34:04 51°13.701 2°55.749 52.3 1.1 242 14.9
2009-07-01 08:34:09 51°13.701 2°55.747 51.5 1 243 6
2009-07-01 08:34:14 51°13.701 2°55.746 50.2 0.4 273 -999
2009-07-01 08:34:19 51°13.702 2°55.746 48.8 0.4 14 4.7
2009-07-01 08:34:24 51°13.703 2°55.747 44.8 1.2 17 4.7
2009-07-01 08:34:29 51°13.705 2°55.748 38.6 1.5 24 4.6
2009-07-01 08:34:34 51°13.708 2°55.749 30.8 1.8 10 5.7
2009-07-01 08:34:38 51°13.71 2°55.749 23.6 2.2 12 15
2009-07-01 08:34:43 51°13.714 2°55.75 16.8 2.5 3 14.5
2009-07-01 08:34:48 51°13.718 2°55.749 8.8 2.7 352 14.5
2009-07-01 08:34:53 51°13.722 2°55.748 1.8 3 353 14.4
2009-07-01 08:34:58 51°13.726 2°55.746 355.9 3.3 342 14.1
2009-07-01 08:35:03 51°13.731 2°55.743 346.1 3.5 340 13.7
2009-07-01 08:35:07 51°13.734 2°55.74 340.4 3.8 336 13.6
2009-07-01 08:35:12 51°13.74 2°55.736 336.8 4.3 333 13.6
2009-07-01 08:35:17 51°13.746 2°55.73 335.1 4.9 331 13.3
2009-07-01 08:35:22 51°13.752 2°55.725 334.2 5.4 332 11.8
2009-07-01 08:35:27 51°13.76 2°55.718 333.3 5.9 330 11.9
2009-07-01 08:35:32 51°13.767 2°55.71 331.6 6.4 327 11.7
2009-07-01 08:35:37 51°13.775 2°55.703 331.7 6.7 330 11.3
2009-07-01 08:35:42 51°13.784 2°55.694 331.9 7.1 329 11.1
2009-07-01 08:35:46 51°13.791 2°55.688 331.9 7.4 330 10.9
2009-07-01 08:35:51 51°13.8 2°55.679 333.6 7.5 330 10.2
2009-07-01 08:35:56 51°13.809 2°55.671 335.1 7.7 333 10.3
2009-07-01 08:36:01 51°13.819 2°55.662 333.4 8.1 329 10.5
2009-07-01 08:36:06 51°13.829 2°55.652 330.8 8.4 327 11.2
2009-07-01 08:36:11 51°13.839 2°55.643 330.8 8.7 331 12.1
2009-07-01 08:36:17 51°13.852 2°55.631 331.8 8.9 330 -999
2009-07-01 08:36:22 51°13.863 2°55.621 331.8 8.9 330 11.3
2009-07-01 08:36:27 51°13.874 2°55.612 331.8 8.8 330 12.4
2009-07-01 08:36:32 51°13.884 2°55.603 332.3 8.9 331 12.7
2009-07-01 08:36:37 51°13.895 2°55.593 333.3 8.9 331 -999
2009-07-01 08:36:42 51°13.906 2°55.584 334.1 8.8 332 12.8
2009-07-01 08:36:47 51°13.917 2°55.574 334.1 8.9 331 -999
2009-07-01 08:36:53 51°13.93 2°55.563 334.7 8.9 332 13.4
2009-07-01 08:36:58 51°13.941 2°55.554 334.8 9 332 -999
2009-07-01 08:37:05 51°13.956 2°55.541 335 9 332 -999
2009-07-01 08:37:10 51°13.967 2°55.532 335.8 8.9 333 -999
2009-07-01 08:37:15 51°13.978 2°55.523 336 8.9 333 12.9
2009-07-01 08:37:19 51°13.987 2°55.516 335.5 8.9 332 13
2009-07-01 08:37:24 51°13.998 2°55.507 335.2 8.8 333 12.6
2009-07-01 08:37:29 51°14.009 2°55.498 335.4 8.8 334 12.8
2009-07-01 08:37:34 51°14.02 2°55.489 336.1 8.8 333 11.9
2009-07-01 08:37:39 51°14.031 2°55.481 336 8.8 333 11.7
2009-07-01 08:37:44 51°14.042 2°55.472 335.8 8.8 334 12.3
2009-07-01 08:37:49 51°14.053 2°55.464 336.4 8.9 335 12.4
2009-07-01 08:37:54 51°14.064 2°55.455 336.8 8.9 333 12.4
2009-07-01 08:37:58 51°14.073 2°55.448 336.4 8.9 334 12.1
2009-07-01 08:38:03 51°14.084 2°55.439 336.2 8.9 333 12.1
2009-07-01 08:38:08 51°14.095 2°55.431 336.2 8.9 334 12
2009-07-01 08:38:13 51°14.106 2°55.422 336.2 8.9 334 12
2009-07-01 08:38:18 51°14.117 2°55.414 336.5 8.9 334 12.1
2009-07-01 08:38:22 51°14.126 2°55.407 336.7 8.8 334 12.5
2009-07-01 08:38:27 51°14.137 2°55.398 335.9 8.9 332 12.5
2009-07-01 08:38:32 51°14.148 2°55.389 335.4 8.9 333 12.5
2009-07-01 08:38:37 51°14.158 2°55.379 334.6 8.9 329 12.5
2009-07-01 08:38:42 51°14.169 2°55.369 332.5 8.9 329 12.5
2009-07-01 08:38:47 51°14.179 2°55.358 331.1 8.9 327 12.5
2009-07-01 08:38:51 51°14.187 2°55.349 329.1 8.9 325 12.6
2009-07-01 08:38:56 51°14.197 2°55.338 327.4 8.9 323 12.5
2009-07-01 08:39:02 51°14.209 2°55.323 326 8.9 323 12.6
2009-07-01 08:39:06 51°14.217 2°55.313 324.2 9 320 12.6
2009-07-01 08:39:11 51°14.226 2°55.3 322.4 8.9 319 12.6
2009-07-01 08:39:16 51°14.235 2°55.287 321.3 8.9 317 12.5
2009-07-01 08:39:22 51°14.245 2°55.27 318.8 8.9 314 12.5
2009-07-01 08:39:26 51°14.252 2°55.258 316.2 8.9 313 12.5
2009-07-01 08:39:31 51°14.26 2°55.243 314.4 8.9 312 12.3
2009-07-01 08:39:36 51°14.269 2°55.229 314.3 9 313 12.5
2009-07-01 08:39:41 51°14.277 2°55.214 314.6 9 312 12.4
2009-07-01 08:39:46 51°14.285 2°55.199 314.4 9 311 12.3
2009-07-01 08:39:51 51°14.294 2°55.185 314.2 8.9 312 12.4
2009-07-01 08:39:56 51°14.302 2°55.17 314.4 8.9 312 12.3
2009-07-01 08:40:01 51°14.31 2°55.155 315.1 8.9 313 12.2
2009-07-01 08:40:06 51°14.319 2°55.14 315.8 9 313 12.5
2009-07-01 08:40:11 51°14.327 2°55.126 316.1 9 313 12.4
2009-07-01 08:40:16 51°14.336 2°55.111 316.5 9 314 12.4
2009-07-01 08:40:22 51°14.347 2°55.094 316.8 9 315 12.3
2009-07-01 08:40:26 51°14.354 2°55.083 317.4 9 316 12.3
2009-07-01 08:40:30 51°14.361 2°55.072 318.4 9 316 12.4
2009-07-01 08:40:36 51°14.372 2°55.056 319.9 9 318 12.3
2009-07-01 08:40:42 51°14.384 2°55.041 321.7 9.1 321 12.2
2009-07-01 08:40:46 51°14.392 2°55.031 324.1 9.1 323 12.1
2009-07-01 08:40:50 51°14.4 2°55.022 326.3 9.2 325 12.2
2009-07-01 08:40:56 51°14.413 2°55.007 327.6 9.3 325 12.2
2009-07-01 08:41:02 51°14.426 2°54.994 327.7 9.4 326 12.1
2009-07-01 08:41:06 51°14.435 2°54.984 327.7 9.5 326 12.4
2009-07-01 08:41:11 51°14.446 2°54.973 327.4 9.5 327 12.2
2009-07-01 08:41:16 51°14.457 2°54.962 327.5 9.5 329 12.3
2009-07-01 08:41:21 51°14.468 2°54.951 328 9.6 329 12.4
2009-07-01 08:41:26 51°14.48 2°54.94 327.8 9.8 329 12.3
2009-07-01 08:41:31 51°14.492 2°54.929 327 9.9 329 12.2
2009-07-01 08:41:36 51°14.503 2°54.918 326.6 9.9 329 12.1
2009-07-01 08:41:42 51°14.518 2°54.903 326.2 10.1 329 12
2009-07-01 08:41:46 51°14.528 2°54.894 326.7 10.2 329 11.9
2009-07-01 08:41:51 51°14.541 2°54.882 326.9 10.3 329 11.9
2009-07-01 08:41:56 51°14.553 2°54.87 326.3 10.4 329 11.8
2009-07-01 08:42:01 51°14.566 2°54.858 326.2 10.5 330 11.8
2009-07-01 08:42:06 51°14.578 2°54.847 326.6 10.6 330 11.9
2009-07-01 08:42:11 51°14.591 2°54.835 327 10.7 330 11.7
2009-07-01 08:42:16 51°14.604 2°54.823 327.4 10.8 330 11.7
2009-07-01 08:42:21 51°14.618 2°54.811 327.8 10.9 330 11.8
2009-07-01 08:42:26 51°14.631 2°54.798 327.6 11.1 329 11.7
2009-07-01 08:42:31 51°14.644 2°54.786 327.4 11.1 329 11.6
2009-07-01 08:42:36 51°14.658 2°54.773 327.4 11.2 330 11.6
2009-07-01 08:42:42 51°14.674 2°54.759 328.1 11.1 331 11.6
2009-07-01 08:42:46 51°14.685 2°54.749 328.2 11.2 330 11.7
2009-07-01 08:42:50 51°14.696 2°54.739 328 11.3 330 11.6
2009-07-01 08:42:56 51°14.712 2°54.724 327.7 11.3 330 11.7
2009-07-01 08:43:01 51°14.726 2°54.711 328 11.4 330 11.7
2009-07-01 08:43:06 51°14.739 2°54.698 327.7 11.3 329 11.6
2009-07-01 08:43:11 51°14.752 2°54.686 327.4 11.3 329 11.6
2009-07-01 08:43:16 51°14.766 2°54.673 327.3 11.3 329 11.5
2009-07-01 08:43:22 51°14.782 2°54.658 327.8 11.3 330 11.6
2009-07-01 08:43:26 51°14.793 2°54.648 328 11.3 330 11.5
2009-07-01 08:43:31 51°14.807 2°54.635 328 11.3 330 11.5
2009-07-01 08:43:36 51°14.82 2°54.622 328.1 11.3 330 11.5
2009-07-01 08:43:41 51°14.834 2°54.609 328 11.3 329 11.5
2009-07-01 08:43:46 51°14.847 2°54.597 328 11.4 329 11.6
2009-07-01 08:43:51 51°14.861 2°54.585 327.8 11.3 329 11.5
2009-07-01 08:43:56 51°14.875 2°54.572 328 11.4 330 11.6
2009-07-01 08:44:01 51°14.889 2°54.559 328.2 11.4 330 11.8
2009-07-01 08:44:06 51°14.902 2°54.547 328.3 11.4 330 12
2009-07-01 08:44:11 51°14.915 2°54.535 329 11.4 331 12.1
2009-07-01 08:44:15 51°14.926 2°54.526 329.7 11.5 331 12.1
2009-07-01 08:44:21 51°14.943 2°54.512 330.1 11.4 332 12
2009-07-01 08:44:26 51°14.957 2°54.501 330.9 11.4 333 12.1
2009-07-01 08:44:31 51°14.971 2°54.488 331 11.5 332 12.2
2009-07-01 08:44:36 51°14.985 2°54.476 330.8 11.5 332 12.2
2009-07-01 08:44:41 51°14.999 2°54.464 330.2 11.5 331 12.1
2009-07-01 08:44:46 51°15.013 2°54.452 329.4 11.5 331 12.3
2009-07-01 08:44:51 51°15.027 2°54.439 328.6 11.4 329 12.2
2009-07-01 08:44:56 51°15.041 2°54.426 328 11.4 330 12.3
2009-07-01 08:45:01 51°15.054 2°54.412 327.4 11.4 328 12.4
2009-07-01 08:45:06 51°15.068 2°54.399 327 11.5 329 12.3
2009-07-01 08:45:11 51°15.082 2°54.386 327.3 11.4 328 12.3
2009-07-01 08:45:16 51°15.095 2°54.372 327.4 11.4 328 12.3
2009-07-01 08:45:22 51°15.111 2°54.357 327.4 11.4 328 12.3
2009-07-01 08:45:26 51°15.122 2°54.346 327.6 11.4 328 12.3
2009-07-01 08:45:31 51°15.135 2°54.333 328.1 11.4 328 12.4
2009-07-01 08:45:36 51°15.149 2°54.32 328.5 11.3 329 12.4
2009-07-01 08:45:42 51°15.165 2°54.304 328.2 11.3 328 12.4
2009-07-01 08:45:46 51°15.176 2°54.293 327.4 11.4 328 12.5
2009-07-01 08:45:51 51°15.189 2°54.279 327.2 11.4 327 12.4
2009-07-01 08:45:56 51°15.202 2°54.266 327.1 11.4 328 12.4
2009-07-01 08:46:02 51°15.219 2°54.251 327.9 11.4 329 12.4
2009-07-01 08:46:06 51°15.229 2°54.24 328.4 11.4 329 12.5
2009-07-01 08:46:11 51°15.243 2°54.228 329.2 11.4 330 12.5
2009-07-01 08:46:16 51°15.257 2°54.215 329.2 11.4 330 12.3
2009-07-01 08:46:22 51°15.273 2°54.2 329.1 11.4 330 12.2
2009-07-01 08:46:26 51°15.284 2°54.189 329.1 11.4 329 12.2
2009-07-01 08:46:31 51°15.298 2°54.177 329.2 11.5 330 11.9
2009-07-01 08:46:36 51°15.312 2°54.164 329.6 11.5 330 11.7
2009-07-01 08:46:41 51°15.326 2°54.151 329.6 11.5 330 11.7
2009-07-01 08:46:46 51°15.339 2°54.138 329.1 11.5 329 11.7
2009-07-01 08:46:51 51°15.353 2°54.126 329 11.5 331 11.7
2009-07-01 08:46:55 51°15.365 2°54.116 329.6 11.5 331 11.6
2009-07-01 08:47:01 51°15.381 2°54.101 330.5 11.5 331 11.7
2009-07-01 08:47:06 51°15.395 2°54.088 329.9 11.5 329 11.7
2009-07-01 08:47:11 51°15.409 2°54.076 329.5 11.5 330 11.8
2009-07-01 08:47:16 51°15.423 2°54.063 329.5 11.5 330 11.7
2009-07-01 08:47:22 51°15.439 2°54.048 329.4 11.4 330 11.8
2009-07-01 08:47:26 51°15.45 2°54.038 329.6 11.3 331 12
2009-07-01 08:47:31 51°15.464 2°54.026 329.6 11.3 331 11.9
2009-07-01 08:47:36 51°15.478 2°54.013 329.8 11.4 331 11.9
2009-07-01 08:47:41 51°15.492 2°54.001 329.9 11.4 330 12
2009-07-01 08:47:46 51°15.506 2°53.988 329.9 11.4 331 12
2009-07-01 08:47:51 51°15.519 2°53.976 330 11.4 331 11.9
2009-07-01 08:47:56 51°15.533 2°53.964 330 11.3 331 12.3
2009-07-01 08:48:01 51°15.547 2°53.951 329.8 11.3 330 12.2
2009-07-01 08:48:06 51°15.561 2°53.939 329.9 11.4 331 12.2
2009-07-01 08:48:11 51°15.575 2°53.927 331 11.5 332 12.3
2009-07-01 08:48:16 51°15.588 2°53.915 330.9 11.4 331 12.4
2009-07-01 08:48:22 51°15.605 2°53.9 330.4 11.5 331 12.4
2009-07-01 08:48:26 51°15.616 2°53.891 330.3 11.4 331 12.5
2009-07-01 08:48:30 51°15.627 2°53.881 330.3 11.5 331 12.5
2009-07-01 08:48:36 51°15.644 2°53.867 330.4 11.4 332 12.7
2009-07-01 08:48:41 51°15.658 2°53.855 330.4 11.4 331 12.7
2009-07-01 08:48:46 51°15.672 2°53.843 330.7 11.4 331 12.7
2009-07-01 08:48:50 51°15.683 2°53.832 330.9 11.4 330 12.6
2009-07-01 08:48:56 51°15.699 2°53.818 330.9 11.5 331 12.8
2009-07-01 08:49:01 51°15.713 2°53.807 331.6 11.4 333 12.7
2009-07-01 08:49:06 51°15.728 2°53.796 332.2 11.4 334 12.9
2009-07-01 08:49:11 51°15.742 2°53.784 332.5 11.4 333 12.9
2009-07-01 08:49:16 51°15.756 2°53.773 332.3 11.4 333 13
2009-07-01 08:49:21 51°15.77 2°53.761 331.8 11.4 332 12.8
2009-07-01 08:49:26 51°15.784 2°53.749 331 11.5 332 13
2009-07-01 08:49:31 51°15.798 2°53.738 331.1 11.5 333 13
2009-07-01 08:49:36 51°15.813 2°53.726 331.8 11.5 333 13.1
2009-07-01 08:49:42 51°15.83 2°53.712 331.7 11.5 333 13.1
2009-07-01 08:49:46 51°15.841 2°53.703 331.4 11.5 332 13.2
2009-07-01 08:49:51 51°15.855 2°53.691 331.2 11.5 333 13.1
2009-07-01 08:49:56 51°15.87 2°53.68 331.6 11.5 333 13.1
2009-07-01 08:50:02 51°15.887 2°53.666 331.7 11.5 333 12.9
2009-07-01 08:50:06 51°15.898 2°53.657 331.2 11.5 333 12.9
2009-07-01 08:50:11 51°15.912 2°53.645 331 11.5 333 13.1
2009-07-01 08:50:16 51°15.926 2°53.633 330.9 11.4 333 13.2
2009-07-01 08:50:22 51°15.943 2°53.619 330.5 11.5 332 13.4
2009-07-01 08:50:26 51°15.954 2°53.61 329.8 11.5 332 13.2
2009-07-01 08:50:31 51°15.968 2°53.598 330 11.5 333 13.3
2009-07-01 08:50:36 51°15.983 2°53.586 330.6 11.4 333 13.3
2009-07-01 08:50:41 51°15.997 2°53.575 330.8 11.4 333 13.3
2009-07-01 08:50:46 51°16.011 2°53.563 330.3 11.4 332 13.3
2009-07-01 08:50:50 51°16.022 2°53.554 330.1 11.4 333 13.2
2009-07-01 08:50:56 51°16.039 2°53.539 329.7 11.4 332 13.3
2009-07-01 08:51:01 51°16.053 2°53.527 329.4 11.4 332 13.3
2009-07-01 08:51:06 51°16.067 2°53.516 329.3 11.4 332 13.4
2009-07-01 08:51:11 51°16.08 2°53.504 329.1 11.4 332 13.3
2009-07-01 08:51:16 51°16.094 2°53.491 328.8 11.4 331 13.4
2009-07-01 08:51:21 51°16.108 2°53.479 328.9 11.4 332 13.3
2009-07-01 08:51:26 51°16.122 2°53.467 329.2 11.3 331 13.4
2009-07-01 08:51:31 51°16.136 2°53.455 328.9 11.3 331 13.5
2009-07-01 08:51:36 51°16.149 2°53.443 328.9 11.3 332 13.4
2009-07-01 08:51:41 51°16.163 2°53.43 329.4 11.4 331 13.5
2009-07-01 08:51:46 51°16.177 2°53.419 329.8 11.3 331 13.5
2009-07-01 08:51:52 51°16.194 2°53.405 329.9 11.3 332 13.4
2009-07-01 08:51:56 51°16.205 2°53.395 329.9 11.3 332 13.6
2009-07-01 08:52:01 51°16.219 2°53.382 330 11.4 331 13.6
2009-07-01 08:52:06 51°16.232 2°53.37 329.2 11.4 329 13.5
2009-07-01 08:52:11 51°16.246 2°53.357 329.1 11.3 330 13.6
2009-07-01 08:52:17 51°16.262 2°53.341 328.6 11.4 328 13.6
2009-07-01 08:52:21 51°16.273 2°53.332 328.8 11.4 330 13.6
2009-07-01 08:52:26 51°16.287 2°53.319 329.5 11.4 331 13.6
2009-07-01 08:52:31 51°16.3 2°53.307 329.6 11.4 330 13.6
2009-07-01 08:52:37 51°16.317 2°53.293 329.5 11.4 331 13.6
2009-07-01 08:52:42 51°16.331 2°53.281 330.1 11.5 332 13.7
2009-07-01 08:52:46 51°16.342 2°53.272 331.2 11.5 333 13.7
2009-07-01 08:52:51 51°16.356 2°53.259 331.2 11.5 332 13.7
2009-07-01 08:52:56 51°16.37 2°53.248 330.5 11.5 332 13.6
2009-07-01 08:53:02 51°16.387 2°53.234 330.3 11.4 332 13.7
2009-07-01 08:53:06 51°16.399 2°53.224 330.7 11.5 333 13.7
2009-07-01 08:53:10 51°16.41 2°53.215 331.2 11.5 333 13.7
2009-07-01 08:53:16 51°16.427 2°53.201 331.1 11.5 332 13.7
2009-07-01 08:53:22 51°16.444 2°53.187 330.5 11.5 332 13.7
2009-07-01 08:53:26 51°16.455 2°53.178 330.3 11.5 332 13.7
2009-07-01 08:53:30 51°16.466 2°53.168 330.3 11.4 333 13.5
2009-07-01 08:53:36 51°16.483 2°53.154 330.4 11.4 333 13.6
2009-07-01 08:53:41 51°16.497 2°53.142 330.1 11.4 332 13.6
2009-07-01 08:53:46 51°16.511 2°53.131 330.3 11.5 332 13.7
2009-07-01 08:53:50 51°16.522 2°53.122 330.7 11.4 333 13.6
2009-07-01 08:53:56 51°16.539 2°53.107 330.4 11.5 332 13.6
2009-07-01 08:54:01 51°16.553 2°53.096 330.2 11.4 333 13.5
2009-07-01 08:54:06 51°16.567 2°53.084 329.9 11.4 332 13.4
2009-07-01 08:54:11 51°16.581 2°53.072 330.3 11.5 333 13.3
2009-07-01 08:54:16 51°16.596 2°53.06 330.8 11.4 332 13.4
2009-07-01 08:54:21 51°16.61 2°53.048 330.3 11.5 331 13.3
2009-07-01 08:54:26 51°16.623 2°53.036 330.1 11.5 331 13.3
2009-07-01 08:54:31 51°16.637 2°53.024 329.8 11.4 330 13.2
2009-07-01 08:54:36 51°16.651 2°53.011 329.1 11.4 330 13.1
2009-07-01 08:54:41 51°16.665 2°52.999 328.9 11.4 330 13.1
2009-07-01 08:54:46 51°16.679 2°52.987 329.5 11.4 332 12.9
2009-07-01 08:54:51 51°16.693 2°52.975 330 11.4 332 12.9
2009-07-01 08:54:56 51°16.707 2°52.963 330.1 11.4 332 12.9
2009-07-01 08:55:02 51°16.723 2°52.948 329.9 11.4 331 12.6
2009-07-01 08:55:06 51°16.735 2°52.939 329.8 11.5 332 12.6
2009-07-01 08:55:11 51°16.749 2°52.927 330.1 11.4 332 12.3
2009-07-01 08:55:15 51°16.76 2°52.918 329.9 11.4 332 12.1
2009-07-01 08:55:22 51°16.779 2°52.902 329.9 11.4 332 11.8
2009-07-01 08:55:26 51°16.791 2°52.892 330.3 11.4 332 11.5
2009-07-01 08:55:31 51°16.805 2°52.88 330.5 11.4 332 11.2
2009-07-01 08:55:36 51°16.819 2°52.868 330.3 11.4 332 11.3
2009-07-01 08:55:41 51°16.833 2°52.856 329.9 11.4 332 11.1
2009-07-01 08:55:46 51°16.847 2°52.844 329.9 11.5 332 11.1
2009-07-01 08:55:51 51°16.86 2°52.833 330.2 11.4 332 11
2009-07-01 08:55:56 51°16.875 2°52.821 330.2 11.4 332 11
2009-07-01 08:56:01 51°16.889 2°52.809 329.9 11.5 332 11
2009-07-01 08:56:06 51°16.903 2°52.797 330.1 11.5 332 11
2009-07-01 08:56:10 51°16.914 2°52.787 330.2 11.4 331 11.1
2009-07-01 08:56:16 51°16.931 2°52.773 329.6 11.4 332 11.1
2009-07-01 08:56:22 51°16.947 2°52.758 329.7 11.5 331 11.3
2009-07-01 08:56:26 51°16.959 2°52.748 330.5 11.5 332 11.4
2009-07-01 08:56:30 51°16.97 2°52.739 330.8 11.5 331 11.5
2009-07-01 08:56:36 51°16.987 2°52.724 331 11.5 332 11.5
2009-07-01 08:56:41 51°17.001 2°52.712 331.5 11.5 332 11.6
2009-07-01 08:56:46 51°17.015 2°52.7 331.5 11.5 331 11.7
2009-07-01 08:56:51 51°17.029 2°52.688 331.1 11.5 332 11.9
2009-07-01 08:56:56 51°17.043 2°52.676 330.8 11.6 331 11.9
2009-07-01 08:57:01 51°17.057 2°52.664 330.9 11.5 332 11.7
2009-07-01 08:57:06 51°17.071 2°52.653 331.5 11.5 332 11.4
2009-07-01 08:57:11 51°17.085 2°52.641 331.8 11.5 333 11.4
2009-07-01 08:57:17 51°17.102 2°52.627 331.8 11.5 333 11.3
2009-07-01 08:57:22 51°17.116 2°52.615 332.1 11.5 333 11.3
2009-07-01 08:57:26 51°17.128 2°52.605 331.4 11.5 331 11.2
2009-07-01 08:57:31 51°17.142 2°52.593 330.8 11.4 331 11.4
2009-07-01 08:57:36 51°17.156 2°52.58 330.2 11.5 331 11.4
2009-07-01 08:57:42 51°17.172 2°52.565 329.8 11.5 330 11.6
2009-07-01 08:57:46 51°17.183 2°52.555 329.9 11.5 331 11.5
2009-07-01 08:57:51 51°17.197 2°52.542 329.6 11.5 330 11.6
2009-07-01 08:57:56 51°17.211 2°52.53 329.2 11.5 330 11.7
2009-07-01 08:58:01 51°17.225 2°52.517 329.4 11.4 330 11.7
2009-07-01 08:58:06 51°17.238 2°52.504 329.7 11.5 330 11.8
2009-07-01 08:58:11 51°17.252 2°52.491 329.5 11.5 329 11.8
2009-07-01 08:58:16 51°17.266 2°52.479 329.4 11.5 331 12
2009-07-01 08:58:21 51°17.28 2°52.466 329.7 11.5 330 11.9
2009-07-01 08:58:26 51°17.294 2°52.454 329.7 11.5 331 12
2009-07-01 08:58:31 51°17.308 2°52.441 330.2 11.6 331 12.1
2009-07-01 08:58:36 51°17.322 2°52.429 330.8 11.6 332 12.1
2009-07-01 08:58:42 51°17.339 2°52.414 330.8 11.6 331 12
2009-07-01 08:58:46 51°17.35 2°52.404 330.2 11.6 331 12.2
2009-07-01 08:58:51 51°17.364 2°52.392 330.1 11.6 331 12.1
2009-07-01 08:58:56 51°17.379 2°52.38 330.9 11.7 333 12.1
2009-07-01 08:59:02 51°17.396 2°52.366 331.1 11.7 332 12.1
2009-07-01 08:59:06 51°17.407 2°52.356 331.1 11.7 332 12.1
2009-07-01 08:59:11 51°17.422 2°52.345 331.5 11.6 333 12.1
2009-07-01 08:59:17 51°17.439 2°52.331 331.8 11.6 334 12.2
2009-07-01 08:59:22 51°17.454 2°52.32 331.8 11.6 335 12.2
2009-07-01 08:59:26 51°17.466 2°52.313 335 11.6 340 12.2
2009-07-01 08:59:31 51°17.481 2°52.307 340.3 11.6 344 12.2
2009-07-01 08:59:36 51°17.496 2°52.298 341.2 11.6 341 12.1
2009-07-01 08:59:42 51°17.515 2°52.292 343.8 11.6 347 12.2
2009-07-01 08:59:46 51°17.528 2°52.286 345.2 11.6 345 12.3
2009-07-01 08:59:51 51°17.544 2°52.281 346.5 11.6 349 12.1
2009-07-01 08:59:56 51°17.559 2°52.275 347.7 11.6 347 12.1
2009-07-01 09:00:02 51°17.578 2°52.271 348.6 11.6 351 12.1
2009-07-01 09:00:06 51°17.591 2°52.269 350.7 11.6 352 12.2
2009-07-01 09:00:11 51°17.607 2°52.268 355.1 11.7 359 12.1
2009-07-01 09:00:16 51°17.623 2°52.266 356.7 11.6 356 12.1
2009-07-01 09:00:22 51°17.643 2°52.267 359 11.6 2 12.1
2009-07-01 09:00:26 51°17.655 2°52.267 0.5 11.7 -999 12
2009-07-01 09:00:31 51°17.672 2°52.269 2.1 11.7 4 12
2009-07-01 09:00:36 51°17.688 2°52.27 3.4 11.7 3 12.1
2009-07-01 09:00:42 51°17.707 2°52.274 4.3 11.8 5 12
2009-07-01 09:00:46 51°17.72 2°52.276 5.3 11.7 5 12.1
2009-07-01 09:00:51 51°17.737 2°52.278 5.9 11.8 6 12.1
2009-07-01 09:00:56 51°17.753 2°52.281 6.4 11.8 6 12.1
2009-07-01 09:01:01 51°17.769 2°52.284 7.4 11.9 9 12
2009-07-01 09:01:06 51°17.786 2°52.288 8.2 11.8 8 12.1
2009-07-01 09:01:11 51°17.802 2°52.291 8.4 11.9 8 12
2009-07-01 09:01:17 51°17.821 2°52.296 8.7 11.8 8 12
2009-07-01 09:01:22 51°17.838 2°52.299 8.4 11.8 7 12
2009-07-01 09:01:26 51°17.85 2°52.302 8.5 11.8 8 12.1
2009-07-01 09:01:31 51°17.867 2°52.305 8.7 11.9 8 12.1
2009-07-01 09:01:37 51°17.886 2°52.31 8.6 11.9 8 12.2
2009-07-01 09:01:42 51°17.903 2°52.314 8.8 11.8 8 12.1
2009-07-01 09:01:46 51°17.916 2°52.316 8.2 11.8 7 12.2
2009-07-01 09:01:50 51°17.929 2°52.319 8 11.9 8 12
2009-07-01 09:01:56 51°17.949 2°52.323 8.7 11.9 8 12
2009-07-01 09:02:02 51°17.968 2°52.328 9.3 11.9 9 12.1
2009-07-01 09:02:06 51°17.981 2°52.331 9.3 11.9 8 12.2
2009-07-01 09:02:10 51°17.994 2°52.334 8.8 11.9 8 12.1
2009-07-01 09:02:16 51°18.014 2°52.338 8.5 11.9 8 12.2
2009-07-01 09:02:21 51°18.03 2°52.342 8.2 11.9 7 12.3
2009-07-01 09:02:26 51°18.047 2°52.346 8.1 11.9 8 12.3
2009-07-01 09:02:30 51°18.06 2°52.349 8.5 11.9 8 12.3
2009-07-01 09:02:36 51°18.079 2°52.353 8.9 11.8 8 12.3
2009-07-01 09:02:41 51°18.095 2°52.357 8.8 11.9 8 12.3
2009-07-01 09:02:46 51°18.111 2°52.361 8.8 11.9 9 12.3
2009-07-01 09:02:51 51°18.128 2°52.365 9.3 11.9 9 12.3
2009-07-01 09:02:56 51°18.144 2°52.37 9.4 11.9 9 12.4
2009-07-01 09:03:01 51°18.16 2°52.374 9.5 11.9 9 12.4
2009-07-01 09:03:06 51°18.177 2°52.378 9.4 11.9 8 12.3
2009-07-01 09:03:12 51°18.196 2°52.383 9.2 11.8 9 12.5
2009-07-01 09:03:16 51°18.209 2°52.385 9 11.8 8 12.5
2009-07-01 09:03:21 51°18.225 2°52.389 8.5 11.9 9 12.5
2009-07-01 09:03:26 51°18.242 2°52.393 8.9 11.8 9 12.5
2009-07-01 09:03:31 51°18.258 2°52.397 9.3 11.9 10 12.6
2009-07-01 09:03:36 51°18.274 2°52.402 9.6 11.9 9 12.6
2009-07-01 09:03:42 51°18.293 2°52.407 10.2 11.8 10 12.5
2009-07-01 09:03:46 51°18.306 2°52.41 10.4 11.8 9 12.6
2009-07-01 09:03:50 51°18.319 2°52.414 9.8 11.8 9 12.7
2009-07-01 09:03:56 51°18.339 2°52.418 9.3 11.7 9 12.8
2009-07-01 09:04:02 51°18.357 2°52.423 9.3 11.7 9 12.7
2009-07-01 09:04:06 51°18.37 2°52.426 9.2 11.7 9 12.9
2009-07-01 09:04:11 51°18.386 2°52.43 9.1 11.7 8 12.9
2009-07-01 09:04:16 51°18.402 2°52.434 8.9 11.6 8 12.8
2009-07-01 09:04:22 51°18.422 2°52.439 8.9 11.6 9 12.9
2009-07-01 09:04:26 51°18.434 2°52.443 9.5 11.7 10 12.9
2009-07-01 09:04:31 51°18.45 2°52.447 10.2 11.7 10 12.9
2009-07-01 09:04:36 51°18.466 2°52.451 10.8 11.7 10 13
2009-07-01 09:04:42 51°18.485 2°52.457 11.2 11.6 10 13
2009-07-01 09:04:46 51°18.498 2°52.46 10.8 11.6 9 13.1
2009-07-01 09:04:50 51°18.511 2°52.464 10.4 11.7 10 13
2009-07-01 09:04:56 51°18.53 2°52.469 10.2 11.6 9 13.1
2009-07-01 09:05:01 51°18.546 2°52.473 9.9 11.6 9 13.2
2009-07-01 09:05:06 51°18.562 2°52.476 9.6 11.7 9 13.2
2009-07-01 09:05:10 51°18.575 2°52.479 9.3 11.7 8 13.3
2009-07-01 09:05:16 51°18.594 2°52.484 9.5 11.7 9 13.1
2009-07-01 09:05:21 51°18.61 2°52.488 9.5 11.7 8 13.2
2009-07-01 09:05:26 51°18.626 2°52.492 9.6 11.7 9 13.3
2009-07-01 09:05:31 51°18.642 2°52.496 10.2 11.7 9 13.2
2009-07-01 09:05:37 51°18.661 2°52.501 10.8 11.7 10 13.4
2009-07-01 09:05:42 51°18.677 2°52.505 10.5 11.7 9 13.4
2009-07-01 09:05:46 51°18.69 2°52.508 10.2 11.7 9 13.4
2009-07-01 09:05:51 51°18.706 2°52.513 10.2 11.7 9 13.5
2009-07-01 09:05:56 51°18.722 2°52.518 10.8 11.8 10 13.4
2009-07-01 09:06:02 51°18.742 2°52.522 11 11.7 9 13.5
2009-07-01 09:06:06 51°18.755 2°52.526 10.2 11.8 9 13.6
2009-07-01 09:06:10 51°18.768 2°52.529 10.2 11.9 9 13.6
2009-07-01 09:06:16 51°18.787 2°52.534 9.7 11.9 9 13.7
2009-07-01 09:06:22 51°18.806 2°52.539 9.6 12 9 13.7
2009-07-01 09:06:26 51°18.819 2°52.542 10.2 12 9 13.6
2009-07-01 09:06:30 51°18.832 2°52.545 10.3 12 9 13.7
2009-07-01 09:06:36 51°18.852 2°52.55 10.3 12.1 9 13.8
2009-07-01 09:06:42 51°18.872 2°52.555 10.1 12.1 9 13.9
2009-07-01 09:06:46 51°18.886 2°52.559 9.9 12.1 9 13.9
2009-07-01 09:06:50 51°18.899 2°52.562 9.8 12.1 9 14.2
2009-07-01 09:06:56 51°18.919 2°52.566 9.4 12.1 8 13.9
2009-07-01 09:07:02 51°18.939 2°52.571 9.4 12.2 9 14
2009-07-01 09:07:06 51°18.952 2°52.574 9.5 12.1 8 14.2
2009-07-01 09:07:11 51°18.969 2°52.578 9.2 12.2 9 14.2
2009-07-01 09:07:16 51°18.986 2°52.581 9.5 12.2 8 14.2
2009-07-01 09:07:22 51°19.006 2°52.586 9.5 12.1 9 14.4
2009-07-01 09:07:26 51°19.019 2°52.59 9.6 12.2 9 14.4
2009-07-01 09:07:31 51°19.036 2°52.594 9.8 12.2 9 14.6
2009-07-01 09:07:36 51°19.053 2°52.598 9.9 12.2 9 14.6
2009-07-01 09:07:42 51°19.073 2°52.603 9.7 12.3 9 14.7
2009-07-01 09:07:46 51°19.086 2°52.607 9.4 12.3 9 14.8
2009-07-01 09:07:51 51°19.103 2°52.611 9.7 12.3 9 14.6
2009-07-01 09:07:56 51°19.12 2°52.615 9.9 12.3 9 14.7
2009-07-01 09:08:01 51°19.137 2°52.619 10 12.3 9 14.9
2009-07-01 09:08:06 51°19.154 2°52.623 10.1 12.3 9 15
2009-07-01 09:08:11 51°19.171 2°52.628 9.5 12.3 8 15.1
2009-07-01 09:08:17 51°19.191 2°52.633 9.5 12.3 9 15.1
2009-07-01 09:08:22 51°19.208 2°52.637 10.1 12.3 9 15.1
2009-07-01 09:08:26 51°19.221 2°52.641 10.9 12.4 10 15.3
2009-07-01 09:08:31 51°19.238 2°52.647 11.3 12.4 11 15.2
2009-07-01 09:08:36 51°19.255 2°52.652 11.5 12.4 10 15.3
2009-07-01 09:08:42 51°19.275 2°52.657 11.6 12.3 10 15.4
2009-07-01 09:08:46 51°19.289 2°52.661 10.7 12.3 9 15.4
2009-07-01 09:08:50 51°19.302 2°52.665 11 12.4 11 15.7
2009-07-01 09:08:56 51°19.322 2°52.671 11.5 12.4 10 15.6
2009-07-01 09:09:02 51°19.343 2°52.677 11.4 12.4 11 15.7
2009-07-01 09:09:06 51°19.356 2°52.68 10.8 12.4 9 15.8
2009-07-01 09:09:10 51°19.37 2°52.683 10.3 12.3 9 15.7
2009-07-01 09:09:16 51°19.39 2°52.688 10 12.3 8 15.8
2009-07-01 09:09:21 51°19.407 2°52.692 9.6 12.3 8 15.9
2009-07-01 09:09:26 51°19.424 2°52.697 9.7 12.3 9 16.1
2009-07-01 09:09:31 51°19.44 2°52.702 10.3 12.4 10 16
2009-07-01 09:09:36 51°19.457 2°52.707 10.8 12.4 10 16.1
2009-07-01 09:09:41 51°19.474 2°52.711 10.3 12.3 9 16.2
2009-07-01 09:09:46 51°19.491 2°52.716 10.1 12.3 10 16.2
2009-07-01 09:09:51 51°19.508 2°52.72 9.8 12.4 8 16.2
2009-07-01 09:09:56 51°19.525 2°52.724 9.4 12.4 9 16.5
2009-07-01 09:10:01 51°19.542 2°52.728 9.4 12.3 8 16.4
2009-07-01 09:10:06 51°19.559 2°52.731 9.1 12.4 9 16.5
2009-07-01 09:10:11 51°19.576 2°52.736 9.3 12.3 9 16.4
2009-07-01 09:10:16 51°19.593 2°52.74 9.6 12.4 9 16.6
2009-07-01 09:10:21 51°19.61 2°52.745 9.9 12.3 9 16.5
2009-07-01 09:10:26 51°19.627 2°52.749 10 12.4 9 16.6
2009-07-01 09:10:31 51°19.644 2°52.753 10 12.4 9 16.7
2009-07-01 09:10:35 51°19.658 2°52.757 9.5 12.4 9 16.9
2009-07-01 09:10:41 51°19.678 2°52.762 9.5 12.4 9 16.8
2009-07-01 09:10:46 51°19.695 2°52.766 9.5 12.4 9 16.9
2009-07-01 09:10:51 51°19.712 2°52.771 9.8 12.4 9 16.9
2009-07-01 09:10:56 51°19.729 2°52.776 10.2 12.4 10 16.9
2009-07-01 09:11:01 51°19.746 2°52.781 10.2 12.5 10 17.1
2009-07-01 09:11:06 51°19.763 2°52.785 9.9 12.4 10 17
2009-07-01 09:11:11 51°19.78 2°52.791 10 12.4 10 17.1
2009-07-01 09:11:16 51°19.797 2°52.795 10 12.4 9 17.2
2009-07-01 09:11:22 51°19.817 2°52.801 9.6 12.4 10 17.2
2009-07-01 09:11:26 51°19.831 2°52.805 10.2 12.5 11 17.4
2009-07-01 09:11:31 51°19.848 2°52.81 10.7 12.5 10 17.4
2009-07-01 09:11:36 51°19.865 2°52.814 10.5 12.5 10 17.3
2009-07-01 09:11:41 51°19.882 2°52.819 10.1 12.5 10 17.4
2009-07-01 09:11:46 51°19.899 2°52.824 10 12.5 10 17.4
2009-07-01 09:11:50 51°19.913 2°52.828 9.9 12.5 10 17.5
2009-07-01 09:11:56 51°19.933 2°52.833 10 12.5 10 17.5
2009-07-01 09:12:01 51°19.95 2°52.838 10 12.5 10 17.4
2009-07-01 09:12:06 51°19.968 2°52.843 10.2 12.5 10 17.5
2009-07-01 09:12:10 51°19.981 2°52.847 10.2 12.5 10 17.6
2009-07-01 09:12:16 51°20.002 2°52.853 10.2 12.6 10 17.5
2009-07-01 09:12:21 51°20.019 2°52.858 10.3 12.5 10 17.5
2009-07-01 09:12:26 51°20.036 2°52.862 10.5 12.5 9 17.5
2009-07-01 09:12:30 51°20.049 2°52.866 10.4 12.5 11 17.6
2009-07-01 09:12:36 51°20.07 2°52.872 11 12.5 10 17.5
2009-07-01 09:12:41 51°20.087 2°52.877 10.4 12.5 10 17.6
2009-07-01 09:12:46 51°20.104 2°52.882 10.2 12.4 10 17.6
2009-07-01 09:12:51 51°20.121 2°52.886 9.7 12.4 8 17.6
2009-07-01 09:12:56 51°20.138 2°52.891 10 12.4 11 17.6
2009-07-01 09:13:01 51°20.155 2°52.895 10.1 12.3 9 17.6
2009-07-01 09:13:06 51°20.172 2°52.9 9.8 12.4 11 17.8
2009-07-01 09:13:11 51°20.188 2°52.904 10.2 12.4 10 17.7
2009-07-01 09:13:15 51°20.202 2°52.908 10.5 12.3 12 17.7
2009-07-01 09:13:21 51°20.222 2°52.915 11.2 12.3 11 17.7
2009-07-01 09:13:26 51°20.239 2°52.919 10.8 12.3 10 17.6
2009-07-01 09:13:31 51°20.256 2°52.924 10.7 12.3 11 17.7
2009-07-01 09:13:36 51°20.272 2°52.929 10.7 12.3 10 17.7
2009-07-01 09:13:42 51°20.292 2°52.935 10.4 12.3 10 17.7
2009-07-01 09:13:46 51°20.306 2°52.938 10.4 12.3 10 17.6
2009-07-01 09:13:51 51°20.323 2°52.944 10.3 12.3 10 17.8
2009-07-01 09:13:56 51°20.339 2°52.948 10.3 12.3 10 17.8
2009-07-01 09:14:01 51°20.356 2°52.953 10.4 12.3 10 17.8
2009-07-01 09:14:06 51°20.373 2°52.959 10.5 12.3 11 17.8
2009-07-01 09:14:11 51°20.389 2°52.964 11.1 12.3 12 17.9
2009-07-01 09:14:16 51°20.406 2°52.969 11.7 12.3 12 17.7
2009-07-01 09:14:21 51°20.423 2°52.975 11.8 12.3 11 17.7
2009-07-01 09:14:26 51°20.439 2°52.98 12.1 12.2 12 17.7
2009-07-01 09:14:30 51°20.453 2°52.985 12.3 12.3 12 17.8
2009-07-01 09:14:36 51°20.473 2°52.992 12 12.3 12 17.7
2009-07-01 09:14:41 51°20.489 2°52.997 11.4 12.3 11 17.8
2009-07-01 09:14:46 51°20.506 2°53.003 11.1 12.3 12 17.7
2009-07-01 09:14:50 51°20.519 2°53.007 11.6 12.2 12 17.8
2009-07-01 09:14:56 51°20.539 2°53.014 11.6 12.3 12 17.8
2009-07-01 09:15:02 51°20.559 2°53.021 11.5 12.3 12 17.7
2009-07-01 09:15:06 51°20.573 2°53.025 11.4 12.3 11 17.7
2009-07-01 09:15:10 51°20.586 2°53.029 11.6 12.3 12 17.7
2009-07-01 09:15:16 51°20.606 2°53.037 11.7 12.3 12 17.8
2009-07-01 09:15:21 51°20.622 2°53.043 11.9 12.2 13 17.9
2009-07-01 09:15:26 51°20.639 2°53.049 12 12.3 13 17.9
2009-07-01 09:15:31 51°20.655 2°53.055 11.7 12.3 13 17.7
2009-07-01 09:15:36 51°20.672 2°53.06 11.7 12.3 12 17.7
2009-07-01 09:15:42 51°20.692 2°53.067 11.8 12.2 13 17.8
2009-07-01 09:15:46 51°20.705 2°53.072 11.8 12.2 12 17.9
2009-07-01 09:15:51 51°20.721 2°53.078 11.3 12.2 12 17.7
2009-07-01 09:15:56 51°20.738 2°53.083 10.8 12.1 11 17.8
2009-07-01 09:16:02 51°20.758 2°53.089 10.3 12.2 11 17.8
2009-07-01 09:16:06 51°20.771 2°53.093 9.6 12.1 10 17.8
2009-07-01 09:16:10 51°20.784 2°53.097 9.4 12.2 11 17.7
2009-07-01 09:16:16 51°20.804 2°53.103 9.4 12.2 10 17.7
2009-07-01 09:16:21 51°20.821 2°53.108 10.2 12.2 12 17.7
2009-07-01 09:16:26 51°20.837 2°53.114 10.6 12.2 11 17.7
2009-07-01 09:16:30 51°20.85 2°53.118 11 12.2 12 17.6
2009-07-01 09:16:36 51°20.87 2°53.125 11.2 12.2 12 17.6
2009-07-01 09:16:41 51°20.887 2°53.131 11 12.2 12 17.6
2009-07-01 09:16:46 51°20.903 2°53.136 11 12.2 12 17.6
2009-07-01 09:16:51 51°20.92 2°53.142 11.3 12.2 12 17.7
2009-07-01 09:16:56 51°20.936 2°53.148 11.5 12.2 13 17.3
2009-07-01 09:17:01 51°20.953 2°53.154 11.7 12.2 12 17.4
2009-07-01 09:17:06 51°20.969 2°53.16 11.3 12.2 12 17.5
2009-07-01 09:17:11 51°20.986 2°53.166 11.1 12.2 12 17.5
2009-07-01 09:17:16 51°21.002 2°53.171 10.9 12.2 11 17.5
2009-07-01 09:17:21 51°21.019 2°53.176 10.7 12.2 12 17.5
2009-07-01 09:17:26 51°21.035 2°53.182 10.8 12.2 12 17.5
2009-07-01 09:17:30 51°21.049 2°53.186 11.2 12.2 12 17.2
2009-07-01 09:17:36 51°21.069 2°53.193 11.1 12.3 12 17.4
2009-07-01 09:17:42 51°21.089 2°53.199 10.8 12.3 11 17.3
2009-07-01 09:17:46 51°21.102 2°53.204 10.5 12.2 11 17.1
2009-07-01 09:17:50 51°21.115 2°53.208 10.4 12.2 12 17.2
2009-07-01 09:17:56 51°21.135 2°53.215 10.8 12.2 12 17.1
2009-07-01 09:18:02 51°21.155 2°53.222 10.8 12.2 12 17.3
2009-07-01 09:18:06 51°21.168 2°53.226 10.7 12.2 12 17.2
2009-07-01 09:18:11 51°21.185 2°53.232 10.7 12.2 12 17.2
2009-07-01 09:18:16 51°21.201 2°53.237 11 12.2 12 17.1
2009-07-01 09:18:21 51°21.218 2°53.243 10.4 12.2 11 17
2009-07-01 09:18:26 51°21.235 2°53.248 10.3 12.2 12 17
2009-07-01 09:18:31 51°21.251 2°53.254 10.6 12.2 12 17
2009-07-01 09:18:36 51°21.268 2°53.259 10.8 12.2 12 16.9
2009-07-01 09:18:41 51°21.284 2°53.264 10.2 12.2 11 16.8
2009-07-01 09:18:46 51°21.301 2°53.269 9.5 12.2 10 16.6
2009-07-01 09:18:51 51°21.318 2°53.273 8.9 12.2 10 16.3
2009-07-01 09:18:55 51°21.331 2°53.277 9.1 12.2 11 16.5
2009-07-01 09:19:01 51°21.351 2°53.283 9.7 12.2 10 16.7
2009-07-01 09:19:06 51°21.368 2°53.288 9.5 12.2 10 16.6
2009-07-01 09:19:11 51°21.384 2°53.294 9.5 12.3 12 16.6
2009-07-01 09:19:16 51°21.401 2°53.299 10.2 12.2 11 16.8
2009-07-01 09:19:21 51°21.417 2°53.304 9.7 12.3 10 16.8
2009-07-01 09:19:26 51°21.434 2°53.309 9.3 12.3 10 17
2009-07-01 09:19:31 51°21.451 2°53.313 9.2 12.2 10 17
2009-07-01 09:19:36 51°21.468 2°53.318 9.1 12.2 10 17.1
2009-07-01 09:19:41 51°21.484 2°53.323 8.6 12.2 10 17.2
2009-07-01 09:19:46 51°21.501 2°53.327 8.4 12.2 10 17.3
2009-07-01 09:19:50 51°21.514 2°53.331 9.1 12.3 11 17.5
2009-07-01 09:19:56 51°21.534 2°53.337 9.6 12.3 11 17.7
2009-07-01 09:20:02 51°21.554 2°53.344 10 12.3 12 17.6
2009-07-01 09:20:06 51°21.568 2°53.349 10.6 12.3 12 17.7
2009-07-01 09:20:10 51°21.581 2°53.353 10.8 12.3 12 17.9
2009-07-01 09:20:16 51°21.601 2°53.358 10.1 12.2 10 17.9
2009-07-01 09:20:22 51°21.621 2°53.365 9.7 12.3 11 18.1
2009-07-01 09:20:26 51°21.634 2°53.368 9.3 12.2 10 18.2
2009-07-01 09:20:30 51°21.648 2°53.372 9.3 12.3 10 18.3
2009-07-01 09:20:36 51°21.668 2°53.378 9.3 12.3 10 18.4
2009-07-01 09:20:41 51°21.685 2°53.382 9.2 12.3 10 18.4
2009-07-01 09:20:46 51°21.702 2°53.387 9 12.3 10 18.7
2009-07-01 09:20:50 51°21.715 2°53.391 8.8 12.2 9 18.7
2009-07-01 09:20:56 51°21.735 2°53.396 9.2 12.3 10 18.7
2009-07-01 09:21:01 51°21.752 2°53.402 9.8 12.3 11 18.9
2009-07-01 09:21:06 51°21.768 2°53.407 10.3 12.3 11 19.1
2009-07-01 09:21:11 51°21.785 2°53.412 10.3 12.3 11 19.3
2009-07-01 09:21:16 51°21.802 2°53.417 10.2 12.3 11 19.5
2009-07-01 09:21:21 51°21.819 2°53.422 10.7 12.2 11 19.8
2009-07-01 09:21:26 51°21.835 2°53.427 10.6 12.2 10 19.9
2009-07-01 09:21:31 51°21.852 2°53.432 10.1 12.2 10 20
2009-07-01 09:21:35 51°21.865 2°53.436 10 12.3 10 20.2
2009-07-01 09:21:41 51°21.885 2°53.442 9.8 12.2 11 20.4
2009-07-01 09:21:46 51°21.902 2°53.448 10.7 12.2 12 20.4
2009-07-01 09:21:51 51°21.919 2°53.453 11 12.3 11 20.5
2009-07-01 09:21:56 51°21.935 2°53.459 11 12.3 12 20.7
2009-07-01 09:22:01 51°21.952 2°53.464 11.4 12.3 12 20.8
2009-07-01 09:22:06 51°21.969 2°53.47 11.4 12.3 12 20.8
2009-07-01 09:22:11 51°21.985 2°53.475 11.4 12.3 12 20.9
2009-07-01 09:22:16 51°22.002 2°53.481 11.5 12.3 12 20.9
2009-07-01 09:22:22 51°22.022 2°53.487 11.5 12.3 11 20.8
2009-07-01 09:22:26 51°22.035 2°53.492 11 12.3 12 20.9
2009-07-01 09:22:30 51°22.049 2°53.496 11 12.3 12 21.1
2009-07-01 09:22:36 51°22.069 2°53.503 11 12.3 12 21.3
2009-07-01 09:22:42 51°22.089 2°53.509 10.8 12.3 11 21.4
2009-07-01 09:22:46 51°22.102 2°53.514 11.1 12.2 12 21.5
2009-07-01 09:22:50 51°22.115 2°53.518 11 12.3 10 21.7
2009-07-01 09:22:56 51°22.135 2°53.525 10.3 12.3 12 21.9
2009-07-01 09:23:01 51°22.152 2°53.53 10.5 12.3 12 22
2009-07-01 09:23:06 51°22.169 2°53.536 11 12.3 12 22.1
2009-07-01 09:23:10 51°22.182 2°53.541 11.2 12.4 12 22.1
2009-07-01 09:23:16 51°22.202 2°53.547 11.2 12.3 12 22.3
2009-07-01 09:23:21 51°22.219 2°53.553 10.9 12.3 12 22.5
2009-07-01 09:23:26 51°22.236 2°53.558 10.9 12.3 11 22.6
2009-07-01 09:23:31 51°22.252 2°53.564 10.6 12.3 12 22.8
2009-07-01 09:23:36 51°22.269 2°53.57 10.8 12.3 12 22.9
2009-07-01 09:23:41 51°22.286 2°53.576 11.1 12.3 12 23
2009-07-01 09:23:46 51°22.303 2°53.581 11.2 12.3 12 23.1
2009-07-01 09:23:51 51°22.32 2°53.587 11.2 12.3 12 23.3
2009-07-01 09:23:56 51°22.337 2°53.592 10.2 12.3 10 23.1
2009-07-01 09:24:01 51°22.353 2°53.597 9.9 12.3 11 23.3
2009-07-01 09:24:06 51°22.37 2°53.601 9.3 12.3 10 23.5
2009-07-01 09:24:11 51°22.387 2°53.606 9 12.3 10 23.6
2009-07-01 09:24:16 51°22.403 2°53.611 8.8 12.2 10 23.5
2009-07-01 09:24:22 51°22.423 2°53.616 8.8 12.2 10 23.6
2009-07-01 09:24:26 51°22.437 2°53.62 8.8 12.3 10 23.7
2009-07-01 09:24:31 51°22.454 2°53.625 8.7 12.3 10 23.8
2009-07-01 09:24:35 51°22.467 2°53.629 9.1 12.3 10 23.8
2009-07-01 09:24:41 51°22.487 2°53.634 9.2 12.3 10 24.4
2009-07-01 09:24:46 51°22.504 2°53.639 8.8 12.3 10 24.4
2009-07-01 09:24:51 51°22.521 2°53.644 8.9 12.3 10 24.5
2009-07-01 09:24:56 51°22.538 2°53.649 8.9 12.3 10 24.3
2009-07-01 09:25:02 51°22.558 2°53.654 8.8 12.3 10 24
2009-07-01 09:25:06 51°22.572 2°53.658 8.6 12.4 10 23.9
2009-07-01 09:25:11 51°22.589 2°53.663 8.7 12.4 10 23.8
2009-07-01 09:25:16 51°22.605 2°53.668 9.1 12.4 11 23.8
2009-07-01 09:25:22 51°22.626 2°53.674 9.3 12.4 10 23.8
2009-07-01 09:25:26 51°22.639 2°53.678 9.2 12.4 10 23.8
2009-07-01 09:25:30 51°22.653 2°53.682 9.2 12.3 10 23.8
2009-07-01 09:25:36 51°22.674 2°53.687 8.9 12.4 9 23.7
2009-07-01 09:25:41 51°22.691 2°53.691 8.6 12.4 10 23.8
2009-07-01 09:25:46 51°22.707 2°53.696 8.6 12.3 10 23.4
2009-07-01 09:25:50 51°22.721 2°53.7 8.9 12.3 10 23.9
2009-07-01 09:25:56 51°22.741 2°53.706 9.5 12.4 11 24.1
2009-07-01 09:26:01 51°22.758 2°53.71 9.5 12.4 10 24.1
2009-07-01 09:26:06 51°22.775 2°53.715 9.4 12.4 11 24.1
2009-07-01 09:26:10 51°22.788 2°53.719 9.7 12.4 11 24
2009-07-01 09:26:16 51°22.809 2°53.725 9.5 12.4 10 23.9
2009-07-01 09:26:21 51°22.826 2°53.73 9.4 12.4 11 23.8
2009-07-01 09:26:26 51°22.842 2°53.735 9.7 12.4 11 23.6
2009-07-01 09:26:31 51°22.859 2°53.74 9.7 12.4 10 23.5
2009-07-01 09:26:36 51°22.876 2°53.745 10 12.5 11 23.2
2009-07-01 09:26:42 51°22.896 2°53.752 10.8 12.5 12 23
2009-07-01 09:26:46 51°22.91 2°53.757 11.2 12.5 12 22.3
2009-07-01 09:26:51 51°22.927 2°53.762 10.9 12.5 11 23.2
2009-07-01 09:26:56 51°22.944 2°53.767 10.4 12.5 11 22.3
2009-07-01 09:27:02 51°22.965 2°53.773 9.9 12.5 10 21
2009-07-01 09:27:06 51°22.978 2°53.778 10.2 12.6 12 17.9
2009-07-01 09:27:11 51°22.995 2°53.784 10.9 12.6 11 22.8
2009-07-01 09:27:15 51°23.008 2°53.788 11.3 12.5 12 22.5
2009-07-01 09:27:22 51°23.033 2°53.796 11.4 12.5 11 21
2009-07-01 09:27:26 51°23.046 2°53.8 10.7 12.5 11 22.1
2009-07-01 09:27:31 51°23.064 2°53.805 10.2 12.6 11 22.8
2009-07-01 09:27:36 51°23.081 2°53.81 10.2 12.6 11 22.5
2009-07-01 09:27:42 51°23.101 2°53.817 10.8 12.6 11 23.4
2009-07-01 09:27:46 51°23.115 2°53.821 10.8 12.5 11 23.2
2009-07-01 09:27:51 51°23.132 2°53.826 10.4 12.5 10 22.3
2009-07-01 09:27:56 51°23.149 2°53.831 10 12.5 10 21.8
2009-07-01 09:28:01 51°23.166 2°53.836 9.4 12.5 10 22.1
2009-07-01 09:28:06 51°23.183 2°53.84 9.4 12.5 10 23
2009-07-01 09:28:11 51°23.2 2°53.845 9.6 12.5 10 22.6
2009-07-01 09:28:16 51°23.217 2°53.85 9.8 12.5 10 22.2
2009-07-01 09:28:21 51°23.235 2°53.855 9.8 12.5 10 21.6
2009-07-01 09:28:26 51°23.252 2°53.86 9.7 12.5 10 21.5
2009-07-01 09:28:31 51°23.269 2°53.865 9.5 12.4 9 20.9
2009-07-01 09:28:36 51°23.286 2°53.869 9.5 12.5 11 21.2
2009-07-01 09:28:42 51°23.306 2°53.876 10.7 12.5 11 21.8
2009-07-01 09:28:46 51°23.32 2°53.88 10.7 12.5 11 21.5
2009-07-01 09:28:50 51°23.334 2°53.885 10.6 12.5 11 20.7
2009-07-01 09:28:56 51°23.354 2°53.891 10.3 12.5 11 21.8
2009-07-01 09:29:02 51°23.374 2°53.897 10.2 12.5 11 21.7
2009-07-01 09:29:06 51°23.388 2°53.901 10.2 12.4 11 21.6
2009-07-01 09:29:10 51°23.401 2°53.905 10.2 12.4 11 21.7
2009-07-01 09:29:16 51°23.422 2°53.911 10 12.5 10 21.6
2009-07-01 09:29:22 51°23.442 2°53.917 9.5 12.5 11 21
2009-07-01 09:29:26 51°23.456 2°53.921 9.7 12.4 11 20.5
2009-07-01 09:29:31 51°23.473 2°53.927 9.8 12.5 11 18.9
2009-07-01 09:29:36 51°23.489 2°53.931 9.6 12.4 11 21.6
2009-07-01 09:29:42 51°23.51 2°53.937 9.8 12.5 11 21.7
2009-07-01 09:29:46 51°23.523 2°53.942 10 12.5 10 21.8
2009-07-01 09:29:51 51°23.54 2°53.947 10.2 12.5 12 21.6
2009-07-01 09:29:56 51°23.557 2°53.953 11 12.5 11 21.1
2009-07-01 09:30:01 51°23.574 2°53.958 10.9 12.5 12 20.5
2009-07-01 09:30:06 51°23.591 2°53.965 11.6 12.5 13 18.8
2009-07-01 09:30:11 51°23.608 2°53.97 11.6 12.5 11 21.7
2009-07-01 09:30:15 51°23.621 2°53.975 11.6 12.5 13 21.6
2009-07-01 09:30:21 51°23.642 2°53.982 11.8 12.5 12 20.7
2009-07-01 09:30:26 51°23.659 2°53.988 11.7 12.5 13 20.8
2009-07-01 09:30:31 51°23.676 2°53.994 12.1 12.4 12 19.5
2009-07-01 09:30:36 51°23.692 2°54 11.8 12.4 11 19.2
2009-07-01 09:30:41 51°23.709 2°54.005 11.1 12.5 12 21.9
2009-07-01 09:30:46 51°23.727 2°54.011 11.1 12.5 12 21.9
2009-07-01 09:30:51 51°23.744 2°54.017 11 12.5 13 21.9
2009-07-01 09:30:56 51°23.76 2°54.023 11.9 12.5 12 21.9
2009-07-01 09:31:01 51°23.778 2°54.029 12 12.5 13 22
2009-07-01 09:31:06 51°23.794 2°54.035 11.2 12.5 11 22.2
2009-07-01 09:31:10 51°23.808 2°54.039 10.8 12.5 12 22.1
2009-07-01 09:31:16 51°23.829 2°54.046 10.4 12.5 10 22
2009-07-01 09:31:22 51°23.849 2°54.051 9.7 12.6 11 22.1
2009-07-01 09:31:26 51°23.863 2°54.056 10 12.5 12 22.2
2009-07-01 09:31:30 51°23.876 2°54.061 10.5 12.5 12 22.4
2009-07-01 09:31:36 51°23.897 2°54.067 10.4 12.6 11 22.4
2009-07-01 09:31:42 51°23.918 2°54.073 9.5 12.6 10 22.5
2009-07-01 09:31:46 51°23.931 2°54.077 9.3 12.5 10 22.4
2009-07-01 09:31:50 51°23.945 2°54.081 9.4 12.5 11 22.5
2009-07-01 09:31:56 51°23.965 2°54.087 9.5 12.6 10 22.7
2009-07-01 09:32:02 51°23.986 2°54.094 9.2 12.6 10 22.6
2009-07-01 09:32:06 51°24 2°54.098 9.4 12.6 11 22.4
2009-07-01 09:32:11 51°24.017 2°54.104 10.4 12.6 12 22.5
2009-07-01 09:32:16 51°24.034 2°54.109 10.5 12.6 11 22.5
2009-07-01 09:32:21 51°24.051 2°54.116 11 12.6 13 22.6
2009-07-01 09:32:26 51°24.068 2°54.122 11.4 12.6 12 22.8
2009-07-01 09:32:31 51°24.085 2°54.128 11.4 12.7 13 23.1
2009-07-01 09:32:36 51°24.102 2°54.134 11.6 12.6 13 22.8
2009-07-01 09:32:41 51°24.119 2°54.14 11.7 12.7 12 22.7
2009-07-01 09:32:46 51°24.136 2°54.146 10.8 12.7 11 22.4
2009-07-01 09:32:51 51°24.153 2°54.151 10.2 12.6 12 22.9
2009-07-01 09:32:55 51°24.167 2°54.156 10.2 12.6 12 23.1
2009-07-01 09:33:01 51°24.188 2°54.164 11 12.6 13 23.2
2009-07-01 09:33:06 51°24.205 2°54.169 10.6 12.6 11 23.1
2009-07-01 09:33:11 51°24.222 2°54.175 10.1 12.7 12 23
2009-07-01 09:33:16 51°24.239 2°54.179 9.5 12.6 10 22.8
2009-07-01 09:33:21 51°24.256 2°54.185 9.3 12.6 11 22.5
2009-07-01 09:33:26 51°24.273 2°54.191 9.8 12.6 12 21.9
2009-07-01 09:33:31 51°24.291 2°54.196 10.1 12.6 11 21.4
2009-07-01 09:33:36 51°24.308 2°54.201 9.6 12.7 10 22.6
2009-07-01 09:33:42 51°24.329 2°54.207 9.3 12.6 11 22.9
2009-07-01 09:33:46 51°24.342 2°54.211 9.2 12.6 10 22.5
2009-07-01 09:33:50 51°24.356 2°54.215 8.8 12.6 11 22.4
2009-07-01 09:33:56 51°24.377 2°54.221 9 12.6 11 21.8
2009-07-01 09:34:02 51°24.398 2°54.227 9.2 12.6 11 20.4
2009-07-01 09:34:06 51°24.412 2°54.231 9.2 12.6 10 21.1
2009-07-01 09:34:10 51°24.425 2°54.235 9.2 12.5 11 21
2009-07-01 09:34:16 51°24.446 2°54.24 8.2 12.6 8 20.9
2009-07-01 09:34:21 51°24.463 2°54.245 8 12.6 10 20.8
2009-07-01 09:34:26 51°24.481 2°54.249 8.2 12.6 9 20
2009-07-01 09:34:30 51°24.495 2°54.253 7.8 12.7 9 19.3
2009-07-01 09:34:36 51°24.515 2°54.258 7.4 12.7 9 20.1
2009-07-01 09:34:41 51°24.533 2°54.262 7.4 12.6 8 19.9
2009-07-01 09:34:46 51°24.55 2°54.266 6.9 12.7 9 18.5
2009-07-01 09:34:51 51°24.567 2°54.27 7.8 12.7 10 19.5
2009-07-01 09:34:56 51°24.585 2°54.275 8.1 12.7 9 19.6
2009-07-01 09:35:01 51°24.602 2°54.279 8.1 12.7 9 19.1
2009-07-01 09:35:06 51°24.62 2°54.284 8.1 12.8 9 18.4
2009-07-01 09:35:11 51°24.637 2°54.288 8 12.7 9 18.9
2009-07-01 09:35:16 51°24.654 2°54.293 8.1 12.7 10 19
2009-07-01 09:35:21 51°24.672 2°54.297 7.7 12.7 8 18.1
2009-07-01 09:35:26 51°24.689 2°54.301 7.1 12.7 9 17.9
2009-07-01 09:35:31 51°24.706 2°54.305 6.8 12.7 8 18.3
2009-07-01 09:35:35 51°24.72 2°54.308 6.3 12.6 8 18.4
2009-07-01 09:35:41 51°24.741 2°54.314 7.3 12.7 9 18.6
2009-07-01 09:35:46 51°24.758 2°54.317 7 12.7 8 18.6
2009-07-01 09:35:51 51°24.776 2°54.322 6.7 12.6 9 18.3
2009-07-01 09:35:56 51°24.793 2°54.325 6.8 12.6 7 18.6
2009-07-01 09:36:02 51°24.814 2°54.33 6.2 12.7 8 17.2
2009-07-01 09:36:06 51°24.828 2°54.332 6.2 12.7 8 18.5
2009-07-01 09:36:11 51°24.845 2°54.337 7.5 12.6 9 19.2
2009-07-01 09:36:16 51°24.862 2°54.34 7.5 12.5 7 19.4
2009-07-01 09:36:21 51°24.88 2°54.344 6.7 12.6 8 19.6
2009-07-01 09:36:26 51°24.897 2°54.348 6.6 12.5 7 19.6
2009-07-01 09:36:31 51°24.915 2°54.351 6 12.6 8 19.3
2009-07-01 09:36:36 51°24.932 2°54.356 6.2 12.6 8 19.7
2009-07-01 09:36:42 51°24.953 2°54.36 6.5 12.6 7 20.1
2009-07-01 09:36:46 51°24.966 2°54.362 6.2 12.6 7 20.7
2009-07-01 09:36:50 51°24.98 2°54.366 6.6 12.6 8 21.1
2009-07-01 09:36:56 51°25 2°54.37 6.5 12.5 7 20.9
2009-07-01 09:37:01 51°25.018 2°54.375 7 12.6 10 20.6
2009-07-01 09:37:06 51°25.035 2°54.379 7.5 12.5 9 20.7
2009-07-01 09:37:10 51°25.049 2°54.383 8.1 12.6 10 21
2009-07-01 09:37:16 51°25.07 2°54.389 8.6 12.6 9 21
2009-07-01 09:37:22 51°25.09 2°54.394 7.6 12.6 9 21.3
2009-07-01 09:37:26 51°25.104 2°54.397 7.5 12.7 9 21.5
2009-07-01 09:37:30 51°25.118 2°54.4 7 12.7 9 21.7
2009-07-01 09:37:36 51°25.139 2°54.406 7.5 12.7 10 21.7
2009-07-01 09:37:41 51°25.156 2°54.41 7.9 12.6 10 21.9
2009-07-01 09:37:46 51°25.173 2°54.415 8.4 12.6 9 22
2009-07-01 09:37:51 51°25.19 2°54.419 7.4 12.6 8 21.9
2009-07-01 09:37:56 51°25.208 2°54.424 7.9 12.7 10 21.5
2009-07-01 09:38:02 51°25.229 2°54.429 8.2 12.8 9 20.7
2009-07-01 09:38:06 51°25.243 2°54.433 7.8 12.8 10 20.8
2009-07-01 09:38:11 51°25.26 2°54.438 7.9 12.7 9 21.3
2009-07-01 09:38:17 51°25.281 2°54.443 8.2 12.6 9 21.4
2009-07-01 09:38:21 51°25.295 2°54.447 8.2 12.7 8 21.7
2009-07-01 09:38:26 51°25.312 2°54.45 7.1 12.7 8 21.6
2009-07-01 09:38:31 51°25.329 2°54.454 6.6 12.6 8 21.6
2009-07-01 09:38:36 51°25.347 2°54.457 6 12.6 6 21.5
2009-07-01 09:38:42 51°25.368 2°54.461 5.8 12.7 7 21.5
2009-07-01 09:38:46 51°25.382 2°54.463 5.5 12.7 6 21.4
2009-07-01 09:38:51 51°25.399 2°54.466 4.5 12.7 5 21.2
2009-07-01 09:38:56 51°25.417 2°54.468 3.9 12.7 5 20.5
2009-07-01 09:39:02 51°25.438 2°54.471 3.6 12.7 4 20.4
2009-07-01 09:39:06 51°25.452 2°54.474 3.2 12.7 5 19.1
2009-07-01 09:39:10 51°25.466 2°54.475 2.8 12.7 4 20.1
2009-07-01 09:39:16 51°25.487 2°54.478 3 12.7 5 20.9
2009-07-01 09:39:21 51°25.504 2°54.481 4.1 12.7 6 21.2
2009-07-01 09:39:26 51°25.522 2°54.484 4.5 12.7 6 21.5
2009-07-01 09:39:30 51°25.536 2°54.487 5.6 12.7 8 21.6
2009-07-01 09:39:36 51°25.557 2°54.493 6.8 12.7 9 21.9
2009-07-01 09:39:41 51°25.574 2°54.499 8.6 12.8 13 21.9
2009-07-01 09:39:46 51°25.591 2°54.505 11 12.7 13 21.5
2009-07-01 09:39:50 51°25.605 2°54.511 14.3 12.7 17 21.2
2009-07-01 09:39:56 51°25.625 2°54.523 17.5 12.7 19 21.6
2009-07-01 09:40:02 51°25.644 2°54.535 19.8 12.7 21 21.8
2009-07-01 09:40:06 51°25.657 2°54.544 22.1 12.7 23 21.9
2009-07-01 09:40:10 51°25.671 2°54.553 24 12.8 24 22.3
2009-07-01 09:40:16 51°25.69 2°54.567 25.5 12.8 25 22.3
2009-07-01 09:40:22 51°25.709 2°54.582 26.8 12.8 26 22.5
2009-07-01 09:40:26 51°25.722 2°54.591 25.7 12.7 22 22.7
2009-07-01 09:40:31 51°25.739 2°54.6 23.1 12.8 20 22.9
2009-07-01 09:40:36 51°25.755 2°54.611 23 12.7 21 22.7
2009-07-01 09:40:42 51°25.775 2°54.621 21.3 12.7 17 23
2009-07-01 09:40:46 51°25.788 2°54.625 15.9 12.6 12 23.4
2009-07-01 09:40:51 51°25.805 2°54.63 12.9 12.5 12 23.3
2009-07-01 09:40:56 51°25.823 2°54.635 10.7 12.5 9 23.4
2009-07-01 09:41:02 51°25.843 2°54.639 8.4 12.6 7 23.7
2009-07-01 09:41:06 51°25.857 2°54.641 6.9 12.5 6 23.9
2009-07-01 09:41:11 51°25.874 2°54.643 5.5 12.5 4 24.1
2009-07-01 09:41:15 51°25.888 2°54.645 4.2 12.5 3 24.2
2009-07-01 09:41:21 51°25.908 2°54.645 3 12.4 2 24.3
2009-07-01 09:41:26 51°25.926 2°54.646 2.1 12.5 1 24.5
2009-07-01 09:41:31 51°25.943 2°54.646 1.5 12.5 -999 24.6
2009-07-01 09:41:36 51°25.961 2°54.646 0.9 12.5 -999 24.7
2009-07-01 09:41:41 51°25.978 2°54.646 0.6 12.5 359 24.8
2009-07-01 09:41:46 51°25.995 2°54.645 0.3 12.4 -999 24.9
2009-07-01 09:41:51 51°26.012 2°54.645 0.3 12.4 359 24.9
2009-07-01 09:41:56 51°26.03 2°54.645 0.6 12.4 -999 25
2009-07-01 09:42:01 51°26.047 2°54.645 0.8 12.4 -999 24.9
2009-07-01 09:42:06 51°26.064 2°54.645 0.7 12.4 -999 25
2009-07-01 09:42:10 51°26.078 2°54.646 0.5 12.5 -999 24.9
2009-07-01 09:42:16 51°26.099 2°54.646 0.4 12.4 -999 25.2
2009-07-01 09:42:22 51°26.119 2°54.645 0.3 12.3 -999 25.4
2009-07-01 09:42:26 51°26.133 2°54.644 359.6 12.2 358 25.5
2009-07-01 09:42:30 51°26.146 2°54.644 359.1 12.3 359 25.4
2009-07-01 09:42:36 51°26.167 2°54.642 358.5 12.3 357 25.3
2009-07-01 09:42:42 51°26.187 2°54.641 358.1 12.3 358 25.2
2009-07-01 09:42:46 51°26.201 2°54.641 358.6 12.2 358 25.2
2009-07-01 09:42:50 51°26.214 2°54.64 358.9 12.2 359 25.3
2009-07-01 09:42:56 51°26.235 2°54.64 359.8 12.3 -999 25.6
2009-07-01 09:43:02 51°26.255 2°54.64 0.1 12.4 1 26
2009-07-01 09:43:06 51°26.269 2°54.641 0.9 12.3 2 25.9
2009-07-01 09:43:11 51°26.286 2°54.642 1.1 12.4 1 25.9
2009-07-01 09:43:16 51°26.303 2°54.642 1 12.3 2 26
2009-07-01 09:43:22 51°26.324 2°54.643 0.9 12.3 1 26
2009-07-01 09:43:26 51°26.337 2°54.643 0.7 12.4 1 26.1
2009-07-01 09:43:31 51°26.355 2°54.644 0.6 12.4 1 26.1
2009-07-01 09:43:36 51°26.372 2°54.645 0.4 12.4 1 26.4
2009-07-01 09:43:41 51°26.389 2°54.645 0.1 12.4 1 26.6
2009-07-01 09:43:46 51°26.406 2°54.646 0.2 12.4 1 26.5
2009-07-01 09:43:50 51°26.42 2°54.647 0.8 12.4 2 26.7
2009-07-01 09:43:56 51°26.441 2°54.648 0.6 12.4 1 26.6
2009-07-01 09:44:01 51°26.458 2°54.648 0.3 12.4 1 26.6
2009-07-01 09:44:06 51°26.475 2°54.648 -999 12.4 1 26.4
2009-07-01 09:44:10 51°26.489 2°54.649 0.4 12.4 2 26.5
2009-07-01 09:44:16 51°26.509 2°54.649 0.7 12.4 1 26.5
2009-07-01 09:44:21 51°26.526 2°54.649 0.7 12.3 1 26.6
2009-07-01 09:44:26 51°26.543 2°54.65 0.4 12.4 1 26.6
2009-07-01 09:44:31 51°26.561 2°54.651 0.3 12.4 1 25.6
2009-07-01 09:44:36 51°26.578 2°54.651 0.6 12.3 2 26.1
2009-07-01 09:44:41 51°26.595 2°54.652 0.9 12.4 1 25.4
2009-07-01 09:44:46 51°26.612 2°54.653 0.9 12.5 2 26.2
2009-07-01 09:44:51 51°26.629 2°54.653 0.8 12.4 1 25.6
2009-07-01 09:44:56 51°26.646 2°54.654 0.6 12.5 2 25.8
2009-07-01 09:45:02 51°26.667 2°54.655 0.3 12.5 1 25.3
2009-07-01 09:45:06 51°26.681 2°54.656 0.5 12.4 2 25.8
2009-07-01 09:45:11 51°26.698 2°54.656 0.7 12.4 1 26.3
2009-07-01 09:45:15 51°26.712 2°54.656 0.1 12.4 1 25.4
2009-07-01 09:45:22 51°26.736 2°54.657 359.7 12.5 1 26.1
2009-07-01 09:45:26 51°26.75 2°54.657 359.9 12.6 1 26.5
2009-07-01 09:45:31 51°26.768 2°54.657 0.1 12.6 1 26.3
2009-07-01 09:45:36 51°26.785 2°54.657 0.1 12.5 1 26.2
2009-07-01 09:45:41 51°26.802 2°54.657 -999 12.5 -999 26.8
2009-07-01 09:45:46 51°26.819 2°54.657 359.9 12.5 1 27.2
2009-07-01 09:45:50 51°26.833 2°54.658 0.1 12.5 1 27.1
2009-07-01 09:45:56 51°26.854 2°54.658 0.2 12.5 1 27.1
2009-07-01 09:46:01 51°26.871 2°54.659 0.3 12.6 1 27.2
2009-07-01 09:46:06 51°26.889 2°54.659 0.2 12.6 1 27.5
2009-07-01 09:46:11 51°26.906 2°54.659 0.1 12.5 1 28
2009-07-01 09:46:16 51°26.923 2°54.659 -999 12.4 -999 28.1
2009-07-01 09:46:21 51°26.94 2°54.659 0.1 12.4 1 28.4
2009-07-01 09:46:26 51°26.958 2°54.659 0.1 12.5 -999 28.7
2009-07-01 09:46:31 51°26.975 2°54.659 0.1 12.5 -999 28.8
2009-07-01 09:46:35 51°26.989 2°54.66 0.1 12.5 -999 29.2
2009-07-01 09:46:41 51°27.01 2°54.66 -999 12.5 1 29.5
2009-07-01 09:46:46 51°27.027 2°54.66 0.3 12.5 1 29.6
2009-07-01 09:46:51 51°27.045 2°54.66 0.5 12.5 1 29.7
2009-07-01 09:46:56 51°27.062 2°54.66 359.6 12.5 359 29.8
2009-07-01 09:47:01 51°27.079 2°54.661 -999 12.5 2 30
2009-07-01 09:47:06 51°27.096 2°54.661 0.6 12.5 -999 30
2009-07-01 09:47:11 51°27.114 2°54.661 0.6 12.4 1 30
2009-07-01 09:47:16 51°27.131 2°54.662 0.8 12.4 1 29.9
2009-07-01 09:47:22 51°27.152 2°54.661 0.2 12.4 359 30.1
2009-07-01 09:47:26 51°27.166 2°54.661 359.5 12.5 -999 30.2
2009-07-01 09:47:31 51°27.183 2°54.661 358.9 12.5 359 30.6
2009-07-01 09:47:36 51°27.2 2°54.661 358.6 12.4 359 30.6
2009-07-01 09:47:42 51°27.221 2°54.66 359 12.5 -999 30.4
2009-07-01 09:47:46 51°27.235 2°54.66 359.4 12.5 -999 30.5
2009-07-01 09:47:50 51°27.249 2°54.66 359.4 12.5 359 30.2
2009-07-01 09:47:56 51°27.27 2°54.66 359 12.5 359 30
2009-07-01 09:48:01 51°27.287 2°54.659 358.7 12.4 359 30
2009-07-01 09:48:06 51°27.304 2°54.659 358.6 12.6 359 30
2009-07-01 09:48:10 51°27.318 2°54.658 358.4 12.5 359 30
2009-07-01 09:48:16 51°27.339 2°54.657 358.4 12.4 359 30.4
2009-07-01 09:48:21 51°27.356 2°54.657 358.7 12.5 -999 30.4
2009-07-01 09:48:26 51°27.374 2°54.657 359 12.5 -999 29.9
2009-07-01 09:48:30 51°27.387 2°54.657 358.7 12.4 359 29.8
2009-07-01 09:48:36 51°27.408 2°54.656 359.2 12.4 -999 30.1
2009-07-01 09:48:41 51°27.425 2°54.657 359.8 12.5 -999 30.2
2009-07-01 09:48:46 51°27.443 2°54.656 359.6 12.5 359 30
2009-07-01 09:48:51 51°27.46 2°54.656 359.1 12.5 -999 30.1
2009-07-01 09:48:56 51°27.477 2°54.656 359.3 12.6 -999 29.8
2009-07-01 09:49:01 51°27.495 2°54.656 359.6 12.6 -999 29.7
2009-07-01 09:49:06 51°27.512 2°54.656 359.6 12.5 -999 29.4
2009-07-01 09:49:11 51°27.529 2°54.656 359.1 12.5 359 29.1
2009-07-01 09:49:15 51°27.543 2°54.656 358.9 12.6 -999 29.2
2009-07-01 09:49:21 51°27.564 2°54.656 359.4 12.6 1 29.1
2009-07-01 09:49:26 51°27.581 2°54.656 359.8 12.6 -999 28.6
2009-07-01 09:49:31 51°27.598 2°54.656 359.3 12.5 -999 28.5
2009-07-01 09:49:37 51°27.619 2°54.656 359.4 12.5 1 28.4
2009-07-01 09:49:42 51°27.636 2°54.656 359.5 12.5 -999 27.9
2009-07-01 09:49:46 51°27.65 2°54.656 359.5 12.5 -999 28.4
2009-07-01 09:49:51 51°27.668 2°54.656 359.3 12.6 -999 28.8
2009-07-01 09:49:56 51°27.685 2°54.656 359.4 12.6 -999 28.6
2009-07-01 09:50:02 51°27.706 2°54.657 -999 12.5 1 27.9
2009-07-01 09:50:06 51°27.72 2°54.657 -999 12.5 -999 27.9
2009-07-01 09:50:11 51°27.737 2°54.657 359.5 12.6 -999 27.3
2009-07-01 09:50:16 51°27.755 2°54.657 359.5 12.6 -999 27.1
2009-07-01 09:50:21 51°27.772 2°54.657 359.4 12.6 -999 27.5
2009-07-01 09:50:26 51°27.79 2°54.657 359.4 12.7 -999 26.7
2009-07-01 09:50:30 51°27.804 2°54.657 359.8 12.7 1 26.7
2009-07-01 09:50:36 51°27.825 2°54.657 359.6 12.6 -999 26.3
2009-07-01 09:50:41 51°27.843 2°54.658 359.9 12.7 2 24.9
2009-07-01 09:50:46 51°27.86 2°54.658 0.8 12.6 1 25.2
2009-07-01 09:50:50 51°27.874 2°54.659 1 12.5 1 26.2
2009-07-01 09:50:56 51°27.895 2°54.66 0.9 12.6 1 25.8
2009-07-01 09:51:02 51°27.916 2°54.66 0.2 12.6 -999 25.7
2009-07-01 09:51:06 51°27.93 2°54.66 -999 12.7 1 25.2
2009-07-01 09:51:10 51°27.944 2°54.66 359.7 12.6 -999 23.5
2009-07-01 09:51:16 51°27.965 2°54.66 359.5 12.6 -999 24.5
2009-07-01 09:51:22 51°27.987 2°54.66 359.5 12.7 1 22.5
2009-07-01 09:51:26 51°28.001 2°54.66 359.9 12.6 -999 23.1
2009-07-01 09:51:30 51°28.014 2°54.661 0.1 12.6 1 23.7
2009-07-01 09:51:36 51°28.036 2°54.661 0.1 12.7 -999 23.8
2009-07-01 09:51:42 51°28.057 2°54.662 0.6 12.7 2 22.7
2009-07-01 09:51:46 51°28.071 2°54.663 0.9 12.7 1 21.7
2009-07-01 09:51:50 51°28.085 2°54.663 0.4 12.6 -999 22.4
2009-07-01 09:51:56 51°28.106 2°54.663 0.1 12.5 1 22.7
2009-07-01 09:52:02 51°28.127 2°54.664 0.4 12.6 1 21.2
2009-07-01 09:52:06 51°28.141 2°54.665 0.6 12.6 1 21.3
2009-07-01 09:52:10 51°28.155 2°54.665 0.1 12.6 1 20.7
2009-07-01 09:52:16 51°28.176 2°54.665 359.7 12.6 1 20.5
2009-07-01 09:52:21 51°28.193 2°54.665 359.7 12.5 1 21.1
2009-07-01 09:52:26 51°28.211 2°54.666 359.7 12.5 1 21.3
2009-07-01 09:52:31 51°28.228 2°54.666 359.6 12.5 1 21.2
2009-07-01 09:52:36 51°28.245 2°54.666 359.8 12.5 1 21.3
2009-07-01 09:52:41 51°28.263 2°54.666 359.7 12.6 1 19.7
2009-07-01 09:52:46 51°28.28 2°54.667 359.7 12.6 -999 20.9
2009-07-01 09:52:51 51°28.298 2°54.667 359.4 12.6 1 21.5
2009-07-01 09:52:56 51°28.315 2°54.668 0.1 12.6 1 21.9
2009-07-01 09:53:01 51°28.333 2°54.669 0.3 12.7 2 22.2
2009-07-01 09:53:06 51°28.35 2°54.67 0.8 12.7 2 22.6
2009-07-01 09:53:11 51°28.368 2°54.67 0.6 12.6 1 22.5
2009-07-01 09:53:16 51°28.385 2°54.671 0.3 12.6 2 22.5
2009-07-01 09:53:21 51°28.403 2°54.672 0.1 12.6 1 22.6
2009-07-01 09:53:26 51°28.42 2°54.672 0.1 12.6 1 22.8
2009-07-01 09:53:31 51°28.438 2°54.673 0.5 12.6 2 22.8
2009-07-01 09:53:35 51°28.452 2°54.674 0.7 12.6 1 23.2
2009-07-01 09:53:41 51°28.473 2°54.674 0.3 12.6 1 22.4